SCP
0 0 0 0 0 0 0 0 0 0 0 0 0 0 0 0 0 0 0 0 0 0 0 0 0 0 0 0 0 0 0 0 0 0 0 0 0 0 0 0 0 0 0 0
0 0 0 0 0 0 0 0 0 0 0 0 0 0 0 0 0 0 0 0 0 0 0 0 0 0 0 0 0 0 0 0 0 0 0 0 0 0 0 0 0 0 0 0
0 0 0 0 0 0 0 0 0 0 0 0 0 0 0 0 0 0 0 0 0 0 0 0 0 0 0 0 0 0 0 0 0 0 0 0 0 0 0 0 0 0 0 0
0 0 0 0 0 0 0 0 0 0 0 0 0 0 0 0 0 0 0 0 0 0 0 0 0 0 0 0 0 0 0 0 0 0 0 0 0 0 0 0 0 0 0 0
0 0 0 0 0 0 0 0 0 0 0 0 0 0 0 0 0 0 0 0 0 0 0 0 0 0 0 0 0 0 0 0 0 0 0 0 0 0 0 0 0 0 0 0
0 0 0 0 0 0 0 0 0 0 0 0 0 0 0 0 0 0 0 0 0 0 0 0 0 0 0 0 0 0 0 0 0 0 0 0 0 0 0 0 0 0 0 0
0 0 0 0 0 0 0 0 0 0 0 0 0 0 0 0 0 0 0 0 0 0 0 0 0 0 0 0 0 0 0 0 0 0 0 0 0 0 0 0 0 0 0 0
0 0 0 0 0 0 0 0 0 0 0 0 0 0 0 0 0 0 0 0 0 0 0 0 0 0 0 0 0 0 0 0 0 0 0 0 0 0 0 0 0 0 0 0
0 0 0 0 0 0 0 0 0 0 0 0 0 0 0 0 0 0 0 0 0 0 0 0 0 0 0 0 0 0 0 0 0 0 0 0 0 0 0 0 0 0 0 0
0 0 0 0 0 0 0 0 0 0 0 0 0 0 0 0 0 0 0 0 0 0 0 0 0 0 0 0 0 0 0 0 0 0 0 0 0 0 0 0 0 0 0 0
0 0 0 0 0 0 0 0 0 0 0 0 0 0 0 0 0 0 0 0 0 0 0 0 0 0 0 0 0 0 0 0 0 0 0 0 0 0 0 0 0 0 0 0
0 0 0 0 0 0 0 0 0 0 0 0 0 0 0 0 0 0 0 0 0 0 0 0 0 0 0 0 0 0 0 0 0 0 0 0 0 0 0 0 0 0 0 0
0 0 0 0 0 0 0 0 0 0 0 0 0 0 0 0 0 0 0 0 0 0 0 0 0 0 0 0 0 0 0 0 0 0 0 0 0 0 0 0 0 0 0 0
0 0 0 0 0 0 0 0 0 0 0 0 0 0 0 0 0 0 0 0 0 0 0 0 0 0 0 0 0 0 0 0 0 0 0 0 0 0 0 0 0 0 0 0
0 0 0 0 0 0 0 0 0 0 0 0 0 0 0 0 0 0 0 0 0 0 0 0 0 0 0 0 0 0 0 0 0 0 0 0 0 0 0 0 0 0 0 0
0 0 0 0 0 0 0 0 0 0 0 0 0 0 0 0 0 0 0 0 0 0 0 0 0 0 0 0 0 0 0 0 0 0 0 0 0 0 0 0 0 0 0 0
0 0 0 0 0 0 0 0 0 0 0 0 0 0 0 0 0 0 0 0 0 0 0 0 0 0 0 0 0 0 0 0 0 0 0 0 0 0 0 0 0 0 0 0
0 0 0 0 0 0 0 0 0 0 0 0 0 0 0 0 0 0 0 0 0 0 0 0 0 0 0 0 0 0 0 0 0 0 0 0 0 0 0 0 0 0 0 0
0 0 0 0 0 0 0 0 0 0 0 0 0 0 0 0 0 0 0 0 0 0 0 0 0 0 0 0 0 0 0 0 0 0 0 0 0 0 0 0 0 0 0 0
0 0 0 0 0 0 0 0 0 0 0 0 0 0 0 0 0 0 0 0 0 0 0 0 0 0 0 0 0 0 0 0 0 0 0 0 0 0 0 0 0 0 0 0
0 0 0 0 0 0 0 0 0 0 0 0 0 0 0 0 0 0 0 0 0 0 0 0 0 0 0 0 0 0 0 0 0 0 0 0 0 0 0 0 0 0 0 0
0 0 0 0 0 0 0 0 0 0 0 0 0 0 0 0 0 0 0 0 0 0 0 0 0 0 0 0 0 0 0 0 0 0 0 0 0 0 0 0 0 0 0 0
0 0 0 0 0 0 0 0 0 0 0 0 0 0 0 0 0 0 0 0 0 0 0 0 0 0 0 0 0 0 0 0 0 0 0 0 0 0 0 0 0 0 0 0
0 0 0 0 0 0 -0 0 0 0 0 0 0 0 0 0 0 0 0 0 0 0 0 0 0 0 0 0 0 0 0 0 0 0 0 0 0 0 0 0 0 0 0 0
0 0 0 0 0 0 0 0 0 0 0 0 0 0 0 0 0 0 0 0 0 0 0 0 0 0 0 0 0 0 0 0 0 0 0 0 0 0 0 0 0 0 0 0
0 0 0 0 0 0 0 0 0 0 0 0 0 0 0 0 0 0 0 0 0 0 0 0 0 0 0 0 0 0 0 0 0 0 0 0 0 0 0 0 0 0 0 0
0 0 0 0 0 0 0 0 0 0 0 0 0 0 0 0 0 0 0 0 0 0 0 0 0 0 0 0 0 0 0 0 0 0 0 0 0 0 0 0 0 0 0 0
Wind_Speed
6 8 5 6 7 8 8 8 7 7 8 7 5 4 3 3 3 2 1 1 1 1 1 1 1 1 2 2 2 2 3 3 3 3 3 3 3 3 3 3 4 4 3 3
6 7 7 9 9 9 9 9 10 10 11 6 3 2 2 3 2 2 2 2 1 1 1 1 1 1 1 2 2 2 3 3 2 2 3 3 3 3 3 3 3 3 3 3
5 4 5 8 9 10 9 9 8 10 7 2 3 3 3 3 2 1 2 3 2 2 1 1 1 2 1 2 2 2 3 3 3 3 3 3 3 3 4 4 3 3 3 3
3 2 7 7 3 6 8 8 6 5 3 2 3 4 3 2 1 2 2 2 2 1 1 1 1 1 1 1 2 2 2 2 3 3 3 3 3 4 3 3 4 4 4 4
3 5 8 5 1 1 3 7 5 5 4 3 2 3 2 1 0 1 2 2 2 2 1 1 1 2 1 1 2 2 2 3 3 3 3 3 4 4 3 3 3 3 4 4
4 5 6 3 0 0 1 5 2 3 4 2 0 2 3 1 2 2 2 1 2 2 1 1 1 2 2 2 2 3 3 3 2 2 3 4 4 3 3 3 3 3 3 4
6 6 7 1 1 1 2 4 3 2 2 2 3 3 2 2 2 2 2 2 2 1 1 1 1 2 2 2 3 2 2 2 2 2 3 3 3 3 3 3 3 3 3 3
5 6 7 1 1 3 4 2 3 3 3 3 3 2 2 2 2 2 2 2 2 1 1 1 0 1 2 2 2 2 2 2 2 2 2 2 3 3 3 3 3 3 3 2
6 6 2 2 3 3 2 3 4 4 4 3 3 3 3 2 2 2 2 2 2 1 1 1 1 1 2 2 2 2 2 2 2 2 2 3 3 4 3 3 3 3 3 3
5 6 4 4 3 3 3 3 4 3 4 3 3 3 3 2 2 2 2 2 2 1 1 2 1 1 1 1 1 2 2 2 2 2 2 2 2 3 3 3 3 3 3 3
7 6 5 3 3 3 3 3 3 3 3 3 3 3 3 3 3 2 2 2 2 2 2 2 1 1 1 1 1 2 2 2 2 2 2 2 2 2 3 3 4 4 3 3
7 5 4 4 3 3 3 3 3 4 4 4 3 4 3 3 3 2 2 2 2 2 2 2 1 2 1 1 2 2 2 2 1 2 2 2 2 1 1 2 4 4 4 3
5 4 4 5 4 3 3 3 3 3 4 4 3 3 3 3 3 2 2 2 2 2 2 2 1 2 1 1 2 2 2 2 2 2 2 2 2 2 1 1 2 4 4 4
3 3 4 3 3 3 3 3 3 3 4 4 3 3 3 3 2 3 3 2 2 1 2 2 1 2 1 1 2 2 2 3 2 2 2 2 2 2 2 2 2 1 2 4
4 3 3 3 3 3 3 2 3 3 3 3 2 2 2 2 3 3 2 1 1 1 2 1 1 2 1 1 1 2 2 2 2 2 2 2 2 2 2 2 2 2 1 2
3 3 2 3 3 3 3 3 3 4 4 3 3 2 2 2 2 2 2 1 1 1 1 1 2 2 1 1 1 1 2 3 2 1 2 2 2 2 2 2 2 2 2 2
2 4 4 5 4 4 4 3 4 4 3 3 3 3 2 2 2 2 2 1 1 1 1 1 2 2 1 1 1 1 1 2 2 1 2 2 2 2 2 2 2 2 2 2
3 4 4 4 4 4 4 3 3 2 3 3 2 2 2 1 2 2 2 1 1 1 1 1 1 1 1 1 1 1 1 1 1 1 1 1 1 1 1 2 2 2 1 2
2 3 3 3 2 2 3 3 2 2 2 1 1 2 2 2 2 2 1 1 1 2 2 1 2 1 1 1 1 1 1 1 1 1 1 2 1 1 1 1 1 1 1 1
2 2 2 2 2 1 1 2 1 1 1 1 1 1 2 2 1 1 1 2 2 2 2 1 1 1 1 1 1 0 1 1 1 1 1 1 1 1 1 1 1 1 1 1
2 2 2 2 2 2 1 1 1 1 1 1 1 1 1 1 1 1 1 2 2 1 1 1 1 1 1 0 0 1 1 1 1 1 1 1 1 1 1 1 1 1 1 1
2 2 2 1 1 2 2 1 0 0 1 1 1 0 1 1 2 1 1 1 1 2 2 1 1 1 1 1 1 1 1 1 1 1 1 1 1 1 1 1 1 1 1 1
2 2 2 1 1 1 1 1 1 0 0 1 1 1 1 1 1 1 2 1 1 2 2 1 1 1 1 1 1 1 1 1 1 0 1 1 1 1 1 1 1 1 1 1
2 2 2 1 1 1 1 1 1 1 0 1 1 1 0 1 1 1 1 2 2 3 2 1 2 1 2 2 1 1 1 1 1 1 1 1 1 1 1 1 1 1 1 1
1 1 1 0 0 0 1 1 1 1 1 1 1 1 1 1 0 1 1 1 2 3 2 2 2 2 2 1 1 1 1 0 1 1 1 1 1 1 1 1 1 1 1 1
1 1 1 1 0 0 0 0 0 0 1 1 1 1 1 1 1 1 1 1 1 2 2 1 1 2 1 1 1 1 1 0 0 0 0 0 0 1 1 1 1 1 1 1
1 0 0 1 1 1 0 0 0 0 0 0 1 1 1 1 1 2 2 1 1 2 2 2 2 2 1 1 1 1 1 1 0 0 0 0 1 1 1 1 1 1 1 1
Wind_Direction
272 285 280 266 253 241 234 236 244 265 269 273 277 279 293 309 322 327 304 261 222 220 246 253 260 215 180 173 167 158 160 167 179 171 160 162 168 173 172 174 182 184 175 180
271 272 275 268 252 244 247 249 254 267 271 280 297 313 307 308 311 314 306 300 278 257 246 234 238 209 181 179 177 164 166 175 176 164 163 168 176 176 173 178 177 171 174 177
267 284 302 264 235 228 236 236 235 245 257 319 323 308 288 282 282 288 294 295 281 261 239 230 223 196 193 191 166 163 171 176 181 176 176 180 177 174 182 183 172 175 179 182
267 293 249 244 218 215 234 246 235 249 277 273 268 279 274 245 226 273 285 291 289 278 268 238 196 181 173 163 157 160 173 184 188 183 183 177 178 184 188 181 183 185 187 193
230 249 267 264 250 223 244 266 238 243 267 286 316 306 277 273 325 250 271 282 279 271 253 231 199 169 157 169 163 167 185 195 196 189 185 180 187 191 188 186 194 193 191 196
226 243 249 253 186 358 350 276 280 249 257 248 269 271 265 326 350 332 335 332 314 297 259 221 208 159 163 189 183 194 201 203 198 191 186 190 197 198 193 195 199 194 198 200
230 244 260 270 18 57 214 262 331 305 282 256 220 240 273 326 333 334 333 327 317 301 287 259 216 167 182 198 204 205 194 196 201 197 196 195 197 203 190 194 191 195 202 207
213 232 250 193 144 206 245 309 320 315 304 291 278 292 310 311 306 309 319 320 322 313 304 302 222 174 203 224 204 179 181 199 213 209 207 197 191 202 195 189 190 196 199 211
211 226 254 201 237 258 299 304 306 307 304 291 290 289 293 294 294 298 304 310 323 310 300 300 255 192 216 238 189 174 180 203 217 214 208 201 198 202 196 190 192 197 196 206
260 262 267 262 273 281 289 293 304 304 299 292 284 284 287 283 284 287 291 299 305 297 276 281 279 239 224 232 185 171 191 208 209 205 207 206 205 205 198 194 196 199 201 207
261 274 289 267 272 286 291 304 311 315 307 292 280 278 279 280 276 280 289 292 289 280 269 268 278 263 239 213 177 191 207 211 210 209 202 205 211 212 211 210 202 203 202 198
243 258 258 275 281 281 291 291 295 305 306 298 280 278 282 277 275 277 282 292 296 295 283 272 267 266 244 200 183 196 216 219 218 211 206 201 205 224 228 221 220 224 225 219
256 281 272 283 306 311 294 296 301 297 292 294 297 288 282 281 282 282 283 288 283 281 280 275 264 261 245 204 199 211 222 226 222 218 210 204 204 198 205 242 230 228 227 222
274 284 281 287 300 311 305 305 312 310 301 289 289 291 280 276 274 275 273 272 278 284 285 274 261 262 250 211 201 211 222 228 223 214 206 202 204 202 197 197 211 231 224 218
272 280 277 293 294 294 299 305 309 304 304 305 304 291 280 274 273 278 282 277 277 276 281 284 283 280 266 214 209 215 219 218 216 208 205 205 201 197 196 200 203 208 202 214
277 289 284 279 279 286 291 288 284 290 300 303 308 306 307 298 290 293 290 266 247 263 274 281 280 276 249 206 219 225 222 221 221 205 197 198 198 201 201 201 203 203 209 206
259 269 269 276 276 278 275 274 275 282 291 297 299 305 308 307 308 309 311 313 272 259 255 256 268 276 250 215 217 227 220 204 206 205 199 199 206 212 205 200 207 210 218 215
253 259 259 259 263 272 279 282 283 285 283 284 299 306 298 286 282 293 304 318 316 301 289 270 275 284 253 220 215 224 217 198 197 205 204 201 206 207 200 202 207 210 219 215
295 289 285 276 268 261 264 274 285 287 290 294 302 297 291 286 279 287 307 319 299 295 303 300 314 319 263 231 236 204 192 196 210 217 199 201 209 205 201 202 212 218 212 203
312 312 311 314 322 300 280 286 294 302 306 318 315 312 312 312 312 308 310 298 286 276 277 299 316 304 262 215 235 183 182 180 180 183 192 196 198 204 199 196 200 214 212 204
300 311 316 318 325 324 308 299 296 299 319 323 270 276 291 306 308 297 297 304 315 329 325 328 351 332 314 253 212 156 165 164 165 173 192 204 199 198 196 194 199 210 206 204
303 304 308 313 324 327 335 350 352 320 331 336 326 307 318 318 320 325 309 272 295 327 346 341 333 304 306 337 120 135 137 139 149 158 176 193 200 206 208 197 193 202 206 210
317 314 309 301 292 312 350 6 20 69 356 309 293 287 291 299 304 312 319 326 334 339 346 324 308 311 344 60 102 116 127 136 151 168 180 200 217 218 207 197 203 204 201 207
323 323 314 321 26 37 357 345 8 44 48 351 325 300 298 332 343 351 338 332 345 346 354 341 351 23 46 71 89 98 111 127 144 169 181 199 210 203 190 189 202 212 207 212
310 310 320 17 32 310 299 359 39 44 40 24 5 358 354 343 312 339 358 354 353 359 6 13 32 44 54 79 91 100 108 142 175 182 174 175 181 183 192 199 206 219 230 229
302 300 292 280 263 285 358 45 26 10 49 39 16 11 15 24 34 27 26 19 11 4 13 26 42 43 59 76 83 82 81 71 44 49 149 188 193 204 213 217 218 224 227 228
328 338 9 19 10 6 31 58 9 337 17 82 18 12 23 30 35 30 24 23 22 26 28 32 42 47 49 56 62 54 47 45 36 355 277 254 239 227 219 219 226 225 223 219